Home > Weather > Greenwich Borough > Past weeks

Flag for United Kingdom Weather for the Past 2 Weeks in Greenwich Borough, England, United Kingdom

Now
41 °F

Clear.


Feels Like: 41 °F
Forecast: 53 / 71 °F
Wind: 1 mph from West

Location: Northolt

Current Time: May 5, 2016 at 3:06:47 AM

Latest Report: May 5, 2016 at 1:50 AM


Visibility: N/A

Pressure: 30.21 "Hg

Humidity: 76%

Dew Point: 34 °F

Location of Greenwich BoroughLocation

Historic Weather in Greenwich Borough — Graph

°F

Greenwich Borough Temperature Yesterday

Maximum temperature yesterday: 64 °F (at 4:50 PM)
Minimum temperature yesterday: 37 °F (at 4:50 AM)
Average temperature yesterday: 52 °F

High & Low Weather Summary for the Past Weeks

 TemperatureHumidityPressure
High64 °F (May 2, 1:50 PM)100% (Apr 28, 4:50 AM)30.45 "Hg (Apr 28, 4:50 AM)
Low30 °F (May 1, 5:50 AM)30% (Apr 27, 3:50 PM)29.71 "Hg (Apr 25, 3:50 PM)
Average47 °F66%30.09 "Hg
* Reported Apr 20 1:50 AM — May 5 1:50 AM, Greenwich Borough, Weather by CustomWeather, © 2016

Note: Actual official high and low records may vary slightly from our data, if they occured in-between our weather recording intervals... More about our weather records

Advertising

Greenwich Borough Weather History for the Previous 24 Hours

Scroll right to see more
 ConditionsComfort  
Time TempWeatherWind HumidityBarometerVisibility
1:50 AM
Thu, May 5
41 °FClear.1 mph76%30.21 "HgN/A
12:50 AM43 °FClear.No wind76%30.21 "HgN/A
11:50 PM
Wed, May 4
46 °FClear.No wind62%30.24 "HgN/A
10:50 PM50 °FClear.5 mph50%30.24 "HgN/A
9:50 PM52 °FClear.6 mph47%30.24 "HgN/A
8:50 PM55 °FSunny.5 mph41%30.21 "Hg10 mi
7:50 PM59 °FSunny.8 mph36%30.21 "Hg10 mi
6:50 PM61 °FSunny.10 mph34%30.21 "Hg10 mi
5:50 PM63 °FSunny.9 mph34%30.24 "Hg10 mi
4:50 PM64 °FSunny.8 mph37%30.24 "Hg10 mi
3:50 PM63 °FSunny.12 mph37%30.27 "Hg10 mi
2:50 PM63 °FSunny.10 mph39%30.27 "Hg10 mi
1:50 PM63 °FSunny.12 mph39%30.30 "Hg10 mi
12:50 PM63 °FSunny.10 mph39%30.30 "Hg10 mi
11:50 AM61 °FSunny.12 mph39%30.30 "Hg10 mi
10:50 AM61 °FSunny.9 mph42%30.33 "Hg10 mi
9:50 AM57 °FPassing clouds.9 mph48%30.33 "HgN/A
8:50 AM52 °FSunny.3 mph62%30.33 "Hg10 mi
7:50 AM46 °FSunny.No wind76%30.33 "Hg10 mi
6:50 AM41 °FPassing clouds.No wind87%30.33 "HgN/A
5:50 AM37 °FClear.1 mph93%30.33 "HgN/A
4:50 AM37 °FClear.No wind93%30.33 "HgN/A
3:50 AM39 °FClear.1 mph87%30.33 "HgN/A
Weather by CustomWeather, © 2016

See weather overviewHow to use our weather pages